Tracking 25620 objects as of 18-May-2022
HD Live streaming from Space Station
objects crossing your sky now

USA 122

Track USA 122 now!
10-day predictions
USA 122 is classified as:


NORAD ID: 23862
Int'l Code: 1996-029D
Perigee: 543.8 km
Apogee: 1,681.1 km
Inclination: 63.3 °
Period: 107.4 minutes
Semi major axis: 7483 km
RCS: Unknown
Launch date: May 12, 1996
Source: United States (US)
Launch site: AIR FORCE WESTERN TEST RANGE (AFWTR)
aabbcc
Your satellite tracking list
Your tracking list is empty




NASA's NSSDC Master Catalog

Two Line Element Set (TLE):
1 23862U 96029D   22134.98665275 0.00000600  00000-0  18356-3 0    02
2 23862  63.3433 116.1095 0759845  29.6762 330.3238 13.41066330    07
Source of the keplerian elements: McCants